This demonstration page uses our WeatherBlox Daily Observations layout. Learn more.

Hourly Observations for November 28, 2019

Temp ( °F °C ) Dew Point ( °F °C ) Humidity (%) Winds ( mph kmh ) Pressure ( in mb ) Visibility ( mi km ) Precip ( " mm )
12:15 am 00:15 Clear 21 -6.2 19 -7.2 93 93 E 6 9 30.5 1033 10 16.0934 0 0
12:35 am 00:35 Clear 21 -6 19 -7 93 93 E 8 13 30.5 1033 10 16.0934 0 0
12:55 am 00:55 Partly Cloudy 21 -5.9 19 -7 92 92 ESE 6 9 30.49 1033 10 16.0934 0 0
1:15 am 01:15 Partly Cloudy 22 -5.7 20 -6.8 92 92 ESE 7 11 30.49 1033 10 16.0934 0 0
1:35 am 01:35 Mostly Cloudy 22 -5.7 20 -6.8 92 92 ESE 8 13 30.49 1033 10 16.0934 0 0
1:55 am 01:55 Cloudy 22 -5.5 20 -6.5 93 93 ESE 8 13 30.49 1033 10 16.0934 0 0
2:15 am 02:15 Mostly Cloudy 23 -5.2 20 -6.5 91 91 E 10 17 30.49 1032 10 16.0934 0 0
2:35 am 02:35 Mostly Cloudy 23 -5 21 -6.2 91 91 ESE 10 17 30.5 1033 10 16.0934 0 0
2:55 am 02:55 Cloudy 23 -5 21 -6.1 92 92 ESE 12 19 30.5 1033 10 16.0934 0 0
3:15 am 03:15 Cloudy 23 -4.8 21 -6 91 91 ESE 9 15 30.49 1033 10 16.0934 0 0
3:35 am 03:35 Cloudy 24 -4.6 22 -5.7 92 92 ESE 10 17 30.48 1032 10 16.0934 0 0
3:55 am 03:55 Cloudy 24 -4.3 22 -5.5 91 91 ESE 15 24 30.46 1031 10 16.0934 0 0
4:15 am 04:15 Cloudy with Light Snow 24 -4.2 22 -5.5 91 91 ESE 14 22 30.46 1031 7 11.26538 0 0
4:35 am 04:35 Cloudy with Light Snow 24 -4.2 23 -5.2 93 93 ESE 13 20 30.46 1031 5 8.0467 0 0
4:55 am 04:55 Cloudy 25 -4.1 23 -5.2 92 92 SE 14 22 30.47 1032 10 16.0934 0 0
5:15 am 05:15 Cloudy 25 -4 23 -5.1 92 92 ESE 13 20 30.46 1031 10 16.0934 0 0
5:35 am 05:35 Cloudy 25 -3.9 23 -5 92 92 ESE 13 20 30.45 1031 10 16.0934 0 0
5:55 am 05:55 Cloudy 25 -3.7 23 -5 91 91 SE 14 22 30.44 1031 10 16.0934 0 0
6:15 am 06:15 Cloudy with Light Snow 25 -3.7 23 -5 91 91 SE 13 20 30.45 1031 10 16.0934 0 0
6:35 am 06:35 Cloudy with Light Snow 25 -3.9 23 -4.8 94 94 SE 12 19 30.44 1031 2 3.21868 0 0
6:55 am 06:55 Cloudy with Light Snow 25 -4 24 -4.6 96 96 SE 13 20 30.45 1031 1.5 2.41401 0 0
7:15 am 07:15 Cloudy with Light Snow 25 -4 24 -4.5 96 96 SE 14 22 30.45 1031 1.5 2.41401 0 0
7:35 am 07:35 Cloudy with Light Snow 25 -4 24 -4.3 98 98 SE 16 26 30.44 1031 1.5 2.41401 0.01 0.254
7:55 am 07:55 Cloudy with Light Snow 25 -3.9 24 -4.2 98 98 SE 13 20 30.44 1031 1 1.60934 0.01 0.254
8:15 am 08:15 Cloudy with Light Snow 25 -3.7 25 -4.1 97 97 SE 14 22 30.44 1031 1 1.60934 0 0
8:35 am 08:35 Cloudy with Light Snow 26 -3.6 25 -4 97 97 SE 15 24 30.44 1031 1.25 2.011675 0.01 0.254
8:55 am 08:55 Cloudy with Light Snow 26 -3.5 25 -4 96 96 SE 16 26 30.43 1030 1 1.60934 0.01 0.254
9:15 am 09:15 Cloudy with Light Snow 26 -3.5 25 -4 96 96 SE 17 28 30.42 1030 1 1.60934 0 0
9:35 am 09:35 Cloudy with Light Snow 26 -3.4 25 -3.7 98 98 SE 16 26 30.41 1030 1.5 2.41401 0 0
9:55 am 09:55 Cloudy with Light Snow 27 -3 26 -3.5 96 96 SE 16 26 30.39 1029 1.75 2.816345 0 0
10:15 am 10:15 Cloudy with Light Snow 27 -2.8 26 -3.3 96 96 SE 16 26 30.39 1029 4 6.43736 0 0
10:35 am 10:35 Cloudy with Mist and Fog 27 -2.6 26 -3.2 96 96 SE 17 28 30.38 1029 5 8.0467 0 0
10:55 am 10:55 Cloudy with Light Snow 28 -2.5 26 -3.2 95 95 SE 15 24 30.39 1029 2.5 4.02335 0 0
11:15 am 11:15 Cloudy with Light Snow 28 -2.3 27 -3 95 95 SE 15 24 30.39 1029 1.25 2.011675 0 0
11:35 am 11:35 Cloudy with Light Snow 28 -2.1 27 -2.7 96 96 SE 17 28 30.37 1028 2 3.21868 0 0
11:55 am 11:55 Cloudy with Light Wintry Mix 28 -2 28 -2.5 96 96 SE 16 26 30.36 1028 2 3.21868 0 0
12:15 pm 12:15 Cloudy with Light Snow 29 -1.9 28 -2.5 96 96 SE 15 24 30.34 1028 2.5 4.02335 0 0
12:35 pm 12:35 Cloudy with Light Snow 29 -1.7 28 -2.2 96 96 SE 13 20 30.34 1027 2 3.21868 0 0
12:55 pm 12:55 Cloudy with Light Snow 29 -1.5 28 -2 96 96 SE 16 26 30.34 1027 2 3.21868 0 0
1:15 pm 13:15 Cloudy with Light Snow 30 -1.3 29 -1.8 96 96 SE 15 24 30.32 1027 2 3.21868 0 0
1:35 pm 13:35 Cloudy with Mist and Fog 30 -1.2 29 -1.7 96 96 SE 14 22 30.32 1027 4 6.43736 0 0
1:55 pm 13:55 Cloudy with Mist and Fog 30 -1.1 29 -1.7 96 96 SE 14 22 30.31 1026 5 8.0467 0 0
2:15 pm 14:15 Cloudy with Mist and Fog 30 -1.1 29 -1.6 96 96 SE 16 26 30.31 1026 5 8.0467 0 0
2:35 pm 14:35 Cloudy with Mist and Fog 30 -1.1 29 -1.5 97 97 SE 15 24 30.31 1026 2 3.21868 0 0
2:55 pm 14:55 Cloudy with Mist and Fog 30 -1.1 29 -1.5 97 97 SE 20 31 30.31 1026 2 3.21868 0 0
3:15 pm 15:15 Cloudy with Mist and Fog 30 -1 30 -1.2 99 99 SE 13 20 30.3 1026 2 3.21868 0 0
3:35 pm 15:35 Cloudy with Mist and Fog 31 -0.8 30 -1 99 99 SE 16 26 30.29 1026 1.75 2.816345 0 0
3:55 pm 15:55 Cloudy with Mist and Fog 30 -1 30 -1.1 99 99 SE 15 24 30.28 1025 2.5 4.02335 0 0
4:15 pm 16:15 Cloudy with Mist and Fog 30 -1 30 -1 100 100 SE 15 24 30.27 1025 3 4.82802 0 0
4:35 pm 16:35 Cloudy with Mist and Fog 30 -1 30 -1.1 99 99 SE 17 28 30.28 1025 5 8.0467 0 0
4:55 pm 16:55 Cloudy 30 -1.1 30 -1.2 99 99 SE 20 31 30.26 1025 10 16.0934 0 0
5:15 pm 17:15 Cloudy 30 -1.2 30 -1.2 100 100 SE 18 30 30.25 1024 7 11.26538 0 0
5:35 pm 17:35 Cloudy 30 -1.2 30 -1.2 100 100 SE 17 28 30.27 1025 10 16.0934 0 0
5:55 pm 17:55 Cloudy 30 -1.1 30 -1.1 100 100 SE 14 22 30.28 1025 10 16.0934 0 0
6:15 pm 18:15 Cloudy with Mist and Fog 30 -1.2 30 -1.2 100 100 SSE 15 24 30.29 1026 4 6.43736 0 0
6:35 pm 18:35 Cloudy with Mist and Fog 30 -1.2 30 -1.2 100 100 SSE 16 26 30.29 1026 1.25 2.011675 0 0
6:55 pm 18:55 Cloudy with Mist and Fog 30 -1.1 30 -1.1 100 100 SE 14 22 30.29 1026 1 1.60934 0 0
7:15 pm 19:15 Cloudy with Mist and Fog 30 -1.1 30 -1.1 100 100 SE 15 24 30.28 1025 1 1.60934 0 0
7:35 pm 19:35 Cloudy with Mist and Fog 30 -1 30 -1 100 100 SE 15 24 30.29 1026 1 1.60934 0 0
7:55 pm 19:55 Cloudy with Mist and Fog 30 -1 30 -1 100 100 SE 16 26 30.28 1025 0.75 1.207005 0 0
8:15 pm 20:15 Cloudy with Mist and Fog 30 -1 30 -1 100 100 SE 15 24 30.27 1025 0.75 1.207005 0 0
8:35 pm 20:35 Cloudy with Mist and Fog 30 -1.1 30 -1.1 100 100 SE 13 20 30.26 1025 0.75 1.207005 0 0
8:55 pm 20:55 Cloudy with Mist and Fog 30 -1.1 30 -1.1 100 100 SE 12 19 30.27 1025 1 1.60934 0 0
9:15 pm 21:15 Cloudy with Mist and Fog 30 -1 30 -1 100 100 SE 13 20 30.28 1025 2.5 4.02335 0 0
9:35 pm 21:35 Cloudy with Mist and Fog 30 -1 30 -1 100 100 SE 13 20 30.27 1025 3 4.82802 0 0
9:55 pm 21:55 Cloudy with Mist and Fog 31 -0.7 31 -0.7 100 100 SE 13 20 30.25 1024 2.5 4.02335 0 0
10:15 pm 22:15 Cloudy with Mist and Fog 31 -0.7 31 -0.7 100 100 SE 14 22 30.24 1024 2 3.21868 0 0
10:35 pm 22:35 Cloudy with Mist and Fog 31 -0.6 31 -0.6 100 100 SE 14 22 30.24 1024 3 4.82802 0 0
10:55 pm 22:55 Cloudy with Mist and Fog 31 -0.6 31 -0.6 100 100 SE 10 17 30.23 1024 3 4.82802 0 0
11:15 pm 23:15 Cloudy with Mist and Fog 31 -0.6 31 -0.6 100 100 SE 13 20 30.23 1024 3 4.82802 0 0
11:35 pm 23:35 Cloudy with Mist and Fog 31 -0.6 31 -0.6 100 100 SE 13 20 30.23 1024 1.25 2.011675 0 0
11:55 pm 23:55 Cloudy with Mist and Fog 31 -0.5 31 -0.5 100 100 SE 12 19 30.24 1024 0.75 1.207005 0 0

Powered by AerisWeather